• In Hungary
  • List of Countries
  • For 7 days
  • Water Temperature
  • Satellite Maps
  • Weather Map
  • News
  • Weather Widgets
  • user-avatar
    Login

    Hourly Weather Rumburk

    Today, 21 October, Saturday

    Time Temperature Precipitation Wind Pressure Humidity
    00:00 +10°C° 0 mm 2 mps 724 mmHg 82%
    01:00 +10°C° 0 mm 2 mps 724 mmHg 85%
    02:00 +9°C° 0 mm 2 mps 724 mmHg 87%
    03:00 +8°C° 0 mm 2 mps 724 mmHg 89%
    04:00 +8°C° 0 mm 2 mps 724 mmHg 91%
    05:00 +8°C° 0 mm 2 mps 724 mmHg 91%
    06:00 +7°C° 0 mm 2 mps 724 mmHg 91%
    07:00 +7°C° 0 mm 2 mps 724 mmHg 90%
    08:00 +9°C° 0 mm 2 mps 724 mmHg 84%
    09:00 +10°C° 0 mm 2 mps 725 mmHg 77%
    10:00 +12°C° 0 mm 3 mps 725 mmHg 70%
    11:00 +12°C° 0 mm 3 mps 725 mmHg 67%
    12:00 +14°C° 0 mm 2 mps 725 mmHg 63%
    13:00 +15°C° 0 mm 2 mps 724 mmHg 60%
    14:00 +15°C° 0 mm 2 mps 724 mmHg 62%
    15:00 +15°C° 0 mm 1 mps 724 mmHg 64%
    16:00 +14°C° 0 mm 1 mps 724 mmHg 67%
    17:00 +13°C° 0 mm 1 mps 724 mmHg 70%
    18:00 +12°C° 0 mm 1 mps 724 mmHg 74%
    19:00 +10°C° 0 mm 2 mps 724 mmHg 78%
    20:00 +10°C° 0.2 mm 2 mps 723 mmHg 79%
    21:00 +12°C° 0.2 mm 2 mps 723 mmHg 80%
    22:00 +12°C° 0.2 mm 2 mps 723 mmHg 81%
    23:00 +12°C° 0.5 mm 2 mps 723 mmHg 83%

    Tomorrow, 22 October, Sunday

    Time Temperature Precipitation Wind Pressure Humidity
    00:00 +12°C° 0.5 mm 2 mps 723 mmHg 86%
    01:00 +12°C° 0.5 mm 2 mps 723 mmHg 89%
    02:00 +11°C° 1.4 mm 3 mps 723 mmHg 89%
    03:00 +10°C° 1.4 mm 4 mps 723 mmHg 90%
    04:00 +10°C° 1.4 mm 4 mps 723 mmHg 90%
    05:00 +8°C° 0.6 mm 4 mps 724 mmHg 90%
    06:00 +9°C° 0.6 mm 3 mps 724 mmHg 90%
    07:00 +9°C° 0.6 mm 3 mps 724 mmHg 89%
    08:00 +9°C° 0.2 mm 3 mps 724 mmHg 86%
    09:00 +10°C° 0.2 mm 3 mps 724 mmHg 83%
    10:00 +10°C° 0.2 mm 3 mps 725 mmHg 79%
    11:00 +11°C° 0.1 mm 4 mps 724 mmHg 75%
    12:00 +11°C° 0.1 mm 4 mps 724 mmHg 70%
    13:00 +12°C° 0.1 mm 4 mps 724 mmHg 66%
    14:00 +11°C° 0.1 mm 3 mps 724 mmHg 68%
    15:00 +11°C° 0.1 mm 3 mps 724 mmHg 69%
    16:00 +10°C° 0.1 mm 2 mps 723 mmHg 71%
    17:00 +9°C° 0.1 mm 2 mps 724 mmHg 74%
    18:00 +9°C° 0.1 mm 2 mps 724 mmHg 76%
    19:00 +8°C° 0.1 mm 2 mps 724 mmHg 79%
    20:00 +7°C° 0 mm 2 mps 724 mmHg 80%
    21:00 +7°C° 0 mm 2 mps 724 mmHg 82%
    22:00 +6°C° 0 mm 2 mps 724 mmHg 84%
    23:00 +6°C° 0 mm 2 mps 724 mmHg 85%

    Day after tomorrow, 23 October, Monday

    Time Temperature Precipitation Wind Pressure Humidity
    00:00 +6°C° 0 mm 2 mps 724 mmHg 86%
    01:00 +6°C° 0 mm 2 mps 724 mmHg 87%
    02:00 +5°C° 0 mm 2 mps 724 mmHg 88%
    03:00 +5°C° 0 mm 2 mps 724 mmHg 89%
    04:00 +5°C° 0 mm 2 mps 724 mmHg 90%
    05:00 +5°C° 0 mm 2 mps 724 mmHg 90%
    06:00 +5°C° 0 mm 2 mps 724 mmHg 90%
    07:00 +5°C° 0 mm 2 mps 724 mmHg 90%
    08:00 +5°C° 0 mm 3 mps 724 mmHg 85%
    09:00 +7°C° 0 mm 3 mps 724 mmHg 80%
    10:00 +7°C° 0 mm 4 mps 725 mmHg 75%
    11:00 +8°C° 0.1 mm 3 mps 725 mmHg 77%
    12:00 +8°C° 0.1 mm 3 mps 725 mmHg 78%
    13:00 +8°C° 0.1 mm 3 mps 725 mmHg 80%
    14:00 +8°C° 0 mm 3 mps 725 mmHg 81%
    15:00 +8°C° 0 mm 3 mps 725 mmHg 82%
    16:00 +8°C° 0 mm 3 mps 725 mmHg 83%
    17:00 +7°C° 0 mm 2 mps 725 mmHg 86%
    18:00 +7°C° 0 mm 2 mps 726 mmHg 89%
    19:00 +7°C° 0 mm 1 mps 726 mmHg 92%
    20:00 +7°C° 0 mm 1 mps 726 mmHg 93%
    21:00 +6°C° 0 mm 1 mps 726 mmHg 93%
    22:00 +6°C° 0 mm 1 mps 727 mmHg 94%
    23:00 +6°C° 0 mm 1 mps 727 mmHg 94%

    24 October, Tuesday

    Time Temperature Precipitation Wind Pressure Humidity
    00:00 +7°C° 0 mm 1 mps 727 mmHg 95%
    01:00 +7°C° 0 mm 1 mps 728 mmHg 95%
    02:00 +7°C° 0 mm 1 mps 728 mmHg 95%
    03:00 +7°C° 0 mm 1 mps 728 mmHg 96%
    04:00 +7°C° 0 mm 1 mps 728 mmHg 96%
    05:00 +7°C° 0 mm 1 mps 729 mmHg 96%
    06:00 +7°C° 0 mm 1 mps 729 mmHg 96%
    07:00 +7°C° 0 mm 1 mps 729 mmHg 96%
    08:00 +8°C° 0 mm 1 mps 730 mmHg 92%
    09:00 +8°C° 0 mm 2 mps 730 mmHg 88%
    10:00 +9°C° 0 mm 2 mps 730 mmHg 84%
    11:00 +9°C° 0 mm 2 mps 730 mmHg 83%
    12:00 +10°C° 0 mm 1 mps 731 mmHg 81%
    13:00 +11°C° 0 mm 1 mps 731 mmHg 79%
    14:00 +11°C° 0.1 mm 1 mps 731 mmHg 81%
    15:00 +10°C° 0.1 mm 1 mps 731 mmHg 82%
    16:00 +9°C° 0.1 mm 0 mps 731 mmHg 83%
    17:00 +10°C° 0 mm 1 mps 731 mmHg 85%
    18:00 +9°C° 0 mm 1 mps 731 mmHg 86%
    19:00 +9°C° 0 mm 1 mps 731 mmHg 87%
    20:00 +8°C° 0 mm 1 mps 731 mmHg 88%
    21:00 +8°C° 0 mm 1 mps 731 mmHg 89%
    22:00 +7°C° 0 mm 1 mps 731 mmHg 89%
    23:00 +7°C° 0 mm 1 mps 731 mmHg 90%

    25 October, Wednesday

    Time Temperature Precipitation Wind Pressure Humidity
    00:00 +7°C° 0 mm 1 mps 731 mmHg 90%
    01:00 +7°C° 0 mm 1 mps 731 mmHg 91%
    02:00 +7°C° 0 mm 1 mps 731 mmHg 90%
    03:00 +7°C° 0 mm 1 mps 731 mmHg 90%
    04:00 +7°C° 0 mm 1 mps 731 mmHg 90%
    05:00 +6°C° 0 mm 2 mps 731 mmHg 90%
    06:00 +6°C° 0 mm 2 mps 731 mmHg 89%
    07:00 +6°C° 0 mm 2 mps 731 mmHg 89%
    08:00 +7°C° 0.1 mm 2 mps 731 mmHg 87%
    09:00 +8°C° 0.1 mm 2 mps 731 mmHg 85%
    10:00 +9°C° 0.1 mm 2 mps 731 mmHg 83%
    11:00 +9°C° 0.2 mm 2 mps 731 mmHg 84%
    12:00 +9°C° 0.2 mm 2 mps 731 mmHg 86%
    13:00 +9°C° 0.2 mm 2 mps 731 mmHg 87%
    14:00 +9°C° 0.1 mm 2 mps 731 mmHg 88%
    15:00 +9°C° 0.1 mm 2 mps 731 mmHg 89%
    16:00 +9°C° 0.1 mm 2 mps 731 mmHg 90%
    17:00 +9°C° 0 mm 2 mps 731 mmHg 91%
    18:00 +9°C° 0 mm 2 mps 731 mmHg 92%
    19:00 +9°C° 0 mm 2 mps 731 mmHg 93%
    20:00 +9°C° 0 mm 2 mps 731 mmHg 94%
    21:00 +10°C° 0 mm 1 mps 731 mmHg 94%
    22:00 +10°C° 0 mm 1 mps 731 mmHg 95%
    23:00 +10°C° 0.1 mm 1 mps 731 mmHg 95%

    26 October, Thursday

    Time Temperature Precipitation Wind Pressure Humidity
    00:00 +9°C° 0.1 mm 2 mps 731 mmHg 95%
    01:00 +9°C° 0.1 mm 2 mps 731 mmHg 95%
    02:00 +10°C° 0 mm 1 mps 731 mmHg 95%
    03:00 +10°C° 0 mm 1 mps 731 mmHg 95%
    04:00 +10°C° 0 mm 1 mps 731 mmHg 96%
    05:00 +10°C° 0 mm 1 mps 731 mmHg 95%
    06:00 +10°C° 0 mm 1 mps 731 mmHg 95%
    07:00 +10°C° 0 mm 1 mps 731 mmHg 95%
    08:00 +11°C° 0 mm 1 mps 732 mmHg 91%
    09:00 +12°C° 0 mm 2 mps 732 mmHg 86%
    10:00 +14°C° 0 mm 2 mps 732 mmHg 81%
    11:00 +15°C° 0 mm 2 mps 732 mmHg 78%
    12:00 +15°C° 0 mm 2 mps 732 mmHg 75%
    13:00 +16°C° 0 mm 2 mps 732 mmHg 71%
    14:00 +16°C° 0 mm 2 mps 732 mmHg 74%
    15:00 +15°C° 0 mm 1 mps 732 mmHg 77%
    16:00 +15°C° 0 mm 1 mps 732 mmHg 80%
    17:00 +14°C° 0 mm 1 mps 732 mmHg 83%
    18:00 +12°C° 0 mm 1 mps 732 mmHg 87%
    19:00 +10°C° 0 mm 0 mps 732 mmHg 91%
    20:00 +10°C° 0 mm 0 mps 732 mmHg 91%
    21:00 +10°C° 0 mm 0 mps 732 mmHg 92%
    22:00 +10°C° 0 mm 0 mps 732 mmHg 93%
    23:00 +9°C° 0 mm 0 mps 732 mmHg 93%
    Show more